| time (UTC) | temp C | wind direction | speed KPH | gust KPH | rain 1hr cm | rain 24hr cm | rain mn cm | humidity % | barometer mb |
| 20260506104518 | 15 | 301 | 6.4 | 8.0 | 0.00 | 0.00 | 0.00 | 80 | 1013.1 |
| 20260506104016 | 15 | 2 | 6.4 | 12.9 | 0.00 | 0.00 | 0.00 | 79 | 1013.0 |
| 20260506103513 | 15 | 34 | 4.8 | 9.7 | 0.00 | 0.00 | 0.00 | 79 | 1012.8 |
| 20260506103010 | 15 | 357 | 4.8 | 9.7 | 0.00 | 0.00 | 0.00 | 79 | 1012.8 |
| 20260506102508 | 15 | 356 | 6.4 | 12.9 | 0.00 | 0.00 | 0.00 | 79 | 1012.6 |
| 20260506102005 | 15 | 321 | 6.4 | 9.7 | 0.00 | 0.00 | 0.00 | 78 | 1012.7 |
| 20260506101501 | 15 | 349 | 8.0 | 14.5 | 0.00 | 0.00 | 0.00 | 78 | 1012.5 |
| 20260506100959 | 15 | 322 | 8.0 | 11.3 | 0.00 | 0.00 | 0.00 | 79 | 1012.5 |
| 20260506100457 | 15 | 309 | 9.7 | 17.7 | 0.00 | 0.00 | 0.00 | 80 | 1012.5 |
| 20260506095955 | 15 | 336 | 9.7 | 14.5 | 0.00 | 0.00 | 0.00 | 81 | 1012.2 |
| 20260506095453 | 15 | 334 | 6.4 | 14.5 | 0.00 | 0.00 | 0.00 | 81 | 1012.3 |
| 20260506094949 | 15 | 12 | 3.2 | 6.4 | 0.00 | 0.00 | 0.00 | 81 | 1012.3 |
| 20260506094448 | 15 | 2 | 4.8 | 11.3 | 0.00 | 0.00 | 0.00 | 81 | 1012.1 |
| 20260506093945 | 15 | 355 | 3.2 | 8.0 | 0.00 | 0.00 | 0.00 | 81 | 1012.1 |
| 20260506093443 | 15 | 351 | 4.8 | 11.3 | 0.00 | 0.00 | 0.00 | 81 | 1011.9 |
| 20260506092940 | 15 | 23 | 9.7 | 14.5 | 0.00 | 0.00 | 0.00 | 81 | 1011.8 |
| 20260506092438 | 16 | 26 | 6.4 | 9.7 | 0.00 | 0.00 | 0.00 | 81 | 1011.7 |
| 20260506091934 | 16 | 17 | 6.4 | 16.1 | 0.00 | 0.00 | 0.00 | 81 | 1011.8 |
| 20260506091433 | 16 | 308 | 4.8 | 9.7 | 0.00 | 0.00 | 0.00 | 81 | 1011.8 |
| 20260506090929 | 16 | 358 | 4.8 | 8.0 | 0.00 | 0.00 | 0.00 | 81 | 1011.8 |
| 20260506090427 | 16 | 332 | 3.2 | 12.9 | 0.00 | 0.00 | 0.00 | 81 | 1012.0 |
| 20260506085923 | 16 | 326 | 3.2 | 8.0 | 0.00 | 0.00 | 0.00 | 81 | 1012.1 |
| 20260506085420 | 16 | 25 | 6.4 | 11.3 | 0.00 | 0.00 | 0.00 | 81 | 1011.8 |
| 20260506084917 | 16 | 19 | 8.0 | 16.1 | 0.00 | 0.00 | 0.00 | 81 | 1011.9 |
| 20260506084414 | 16 | 285 | 8.0 | 11.3 | 0.00 | 0.00 | 0.00 | 81 | 1012.0 |
| 20260506083910 | 16 | 357 | 6.4 | 14.5 | 0.00 | 0.00 | 0.00 | 80 | 1011.8 |
| 20260506083408 | 16 | 5 | 6.4 | 14.5 | 0.00 | 0.00 | 0.00 | 81 | 1011.5 |
| 20260506082905 | 16 | 300 | 4.8 | 8.0 | 0.00 | 0.00 | 0.00 | 81 | 1011.8 |
| 20260506082401 | 16 | 297 | 11.3 | 11.3 | 0.00 | 0.00 | 0.00 | 80 | 1011.7 |
| 20260506081857 | 16 | 9 | 4.8 | 8.0 | 0.00 | 0.00 | 0.00 | 81 | 1011.6 |
| 20260506081355 | 16 | 12 | 3.2 | 9.7 | 0.00 | 0.00 | 0.00 | 80 | 1011.5 |
| 20260506080853 | 16 | 11 | 9.7 | 12.9 | 0.00 | 0.00 | 0.00 | 80 | 1011.7 |
| 20260506080349 | 16 | 22 | 4.8 | 6.4 | 0.00 | 0.00 | 0.00 | 80 | 1011.9 |
| 20260506073333 | 17 | 16 | 4.8 | 6.4 | 0.00 | 0.00 | 0.00 | 80 | 1011.3 |
| 20260506072830 | 17 | 32 | 4.8 | 9.7 | 0.00 | 0.00 | 0.00 | 80 | 1011.4 |
| 20260506072328 | 17 | 29 | 8.0 | 9.7 | 0.00 | 0.00 | 0.00 | 80 | 1011.2 |
| 20260506071825 | 17 | 34 | 4.8 | 12.9 | 0.00 | 0.00 | 0.00 | 80 | 1011.4 |
| 20260506071323 | 17 | 16 | 1.6 | 19.3 | 0.00 | 0.00 | 0.00 | 79 | 1011.4 |
| 20260506070820 | 17 | 36 | 4.8 | 16.1 | 0.00 | 0.00 | 0.00 | 79 | 1011.5 |
| 20260506070317 | 17 | 49 | 9.7 | 14.5 | 0.00 | 0.00 | 0.00 | 79 | 1011.0 |
| 20260506062254 | 17 | 30 | 6.4 | 8.0 | 0.00 | 0.00 | 0.00 | 78 | 1011.2 |
| 20260506061750 | 17 | 65 | 4.8 | 6.4 | 0.00 | 0.00 | 0.00 | 78 | 1011.1 |
| 20260506061247 | 17 | 3 | 1.6 | 8.0 | 0.00 | 0.00 | 0.00 | 78 | 1011.3 |
| 20260506060745 | 17 | 344 | 4.8 | 9.7 | 0.00 | 0.00 | 0.00 | 77 | 1011.1 |
| 20260506060243 | 17 | 335 | 3.2 | 8.0 | 0.00 | 0.00 | 0.00 | 77 | 1011.2 |
| 20260506051214 | 18 | 357 | 8.0 | 12.9 | 0.00 | 0.00 | 0.00 | 75 | 1011.2 |
| 20260506050713 | 18 | 285 | 6.4 | 11.3 | 0.00 | 0.00 | 0.00 | 75 | 1011.3 |
| 20260506050210 | 19 | 17 | 4.8 | 9.7 | 0.00 | 0.00 | 0.00 | 75 | 1011.4 |
| 20260506044701 | 19 | 45 | 8.0 | 11.3 | 0.00 | 0.00 | 0.00 | 74 | 1011.1 |
| 20260506044157 | 19 | 17 | 4.8 | 17.7 | 0.00 | 0.00 | 0.00 | 74 | 1011.0 |
| 20260506043654 | 19 | 24 | 6.4 | 9.7 | 0.00 | 0.00 | 0.00 | 74 | 1011.0 |
| 20260506043152 | 19 | 50 | 6.4 | 9.7 | 0.00 | 0.00 | 0.00 | 73 | 1011.1 |
| 20260506042651 | 20 | 40 | 8.0 | 8.0 | 0.00 | 0.00 | 0.00 | 73 | 1010.9 |
| 20260506042149 | 20 | 345 | 3.2 | 11.3 | 0.00 | 0.00 | 0.00 | 73 | 1011.0 |
| 20260506041652 | 20 | 16 | 4.8 | 11.3 | 0.00 | 0.00 | 0.00 | 72 | 1011.0 |
| 20260506041143 | 20 | 311 | 11.3 | 16.1 | 0.00 | 0.00 | 0.00 | 72 | 1011.1 |
| 20260506040642 | 20 | 7 | 6.4 | 20.9 | 0.00 | 0.00 | 0.00 | 72 | 1011.1 |
| 20260506040138 | 20 | 353 | 11.3 | 14.5 | 0.00 | 0.00 | 0.00 | 71 | 1011.1 |
| 20260506035635 | 20 | 282 | 6.4 | 14.5 | 0.00 | 0.00 | 0.00 | 72 | 1011.2 |
| 20260506035131 | 20 | 0 | 9.7 | 19.3 | 0.00 | 0.00 | 0.00 | 71 | 1010.9 |
| 20260506034629 | 20 | 310 | 9.7 | 11.3 | 0.00 | 0.00 | 0.00 | 71 | 1010.9 |
| 20260506034126 | 20 | 307 | 8.0 | 16.1 | 0.00 | 0.00 | 0.00 | 71 | 1010.8 |
| 20260506033623 | 20 | 283 | 9.7 | 14.5 | 0.00 | 0.00 | 0.00 | 71 | 1010.6 |
| 20260506033120 | 20 | 339 | 6.4 | 19.3 | 0.00 | 0.00 | 0.00 | 70 | 1010.4 |
| 20260506032617 | 20 | 287 | 12.9 | 20.9 | 0.00 | 0.00 | 0.00 | 71 | 1010.5 |
| 20260506032114 | 21 | 11 | 4.8 | 16.1 | 0.00 | 0.00 | 0.00 | 72 | 1010.3 |
| 20260506031611 | 21 | 272 | 3.2 | 11.3 | 0.00 | 0.00 | 0.00 | 72 | 1009.9 |
| 20260506031108 | 21 | 310 | 9.7 | 12.9 | 0.00 | 0.00 | 0.00 | 72 | 1009.8 |
| 20260506030607 | 21 | 292 | 11.3 | 14.5 | 0.00 | 0.00 | 0.00 | 72 | 1009.7 |
| 20260506030103 | 21 | 304 | 6.4 | 14.5 | 0.00 | 0.00 | 0.00 | 71 | 1009.6 |
| 20260506025600 | 21 | 9 | 9.7 | 14.5 | 0.00 | 0.00 | 0.00 | 71 | 1009.4 |
| 20260506025056 | 21 | 54 | 6.4 | 17.7 | 0.00 | 0.00 | 0.00 | 70 | 1009.2 |
| 20260506024554 | 21 | 40 | 11.3 | 12.9 | 0.00 | 0.00 | 0.00 | 70 | 1009.2 |
| 20260506024050 | 22 | 358 | 9.7 | 17.7 | 0.00 | 0.00 | 0.00 | 69 | 1009.3 |
| 20260506023546 | 22 | 11 | 9.7 | 12.9 | 0.00 | 0.00 | 0.00 | 69 | 1009.2 |
| 20260506023044 | 22 | 24 | 14.5 | 16.1 | 0.00 | 0.00 | 0.00 | 68 | 1009.0 |
| 20260506022541 | 22 | 328 | 17.7 | 17.7 | 0.00 | 0.00 | 0.00 | 68 | 1008.9 |
| 20260506022038 | 22 | 359 | 6.4 | 17.7 | 0.00 | 0.00 | 0.00 | 67 | 1008.6 |
| 20260506021536 | 22 | 15 | 8.0 | 20.9 | 0.00 | 0.00 | 0.00 | 67 | 1008.5 |
| 20260506021033 | 22 | 349 | 9.7 | 17.7 | 0.00 | 0.00 | 0.00 | 68 | 1008.5 |
| 20260506020530 | 22 | 8 | 4.8 | 19.3 | 0.00 | 0.00 | 0.00 | 68 | 1008.7 |
| 20260506020027 | 22 | 343 | 6.4 | 11.3 | 0.00 | 0.00 | 0.00 | 68 | 1008.4 |
| 20260506015525 | 23 | 308 | 9.7 | 11.3 | 0.00 | 0.00 | 0.00 | 67 | 1008.1 |
| 20260506015022 | 23 | 5 | 8.0 | 20.9 | 0.00 | 0.00 | 0.00 | 67 | 1008.1 |
| 20260506014519 | 23 | 343 | 6.4 | 16.1 | 0.00 | 0.00 | 0.00 | 67 | 1007.9 |
| 20260506014015 | 23 | 351 | 8.0 | 11.3 | 0.00 | 0.00 | 0.00 | 66 | 1007.6 |
| 20260506013513 | 23 | 348 | 8.0 | 14.5 | 0.00 | 0.00 | 0.00 | 66 | 1007.5 |
| 20260506013010 | 23 | 357 | 8.0 | 19.3 | 0.00 | 0.00 | 0.00 | 66 | 1007.4 |
| 20260506012506 | 23 | 353 | 11.3 | 14.5 | 0.00 | 0.00 | 0.00 | 66 | 1007.1 |
| 20260506012003 | 24 | 332 | 6.4 | 14.5 | 0.00 | 0.00 | 0.00 | 66 | 1007.1 |
| 20260506011500 | 24 | 329 | 9.7 | 14.5 | 0.00 | 0.00 | 0.00 | 65 | 1007.1 |
| 20260506010956 | 25 | 356 | 12.9 | 14.5 | 0.00 | 0.00 | 0.00 | 64 | 1007.0 |
| 20260506010456 | 25 | 354 | 8.0 | 14.5 | 0.00 | 0.00 | 0.00 | 63 | 1006.9 |
| 20260506005951 | 25 | 349 | 9.7 | 19.3 | 0.00 | 0.00 | 0.00 | 63 | 1007.1 |
| 20260506005449 | 25 | 16 | 6.4 | 11.3 | 0.00 | 0.00 | 0.00 | 63 | 1007.0 |
| 20260506004944 | 25 | 17 | 6.4 | 9.7 | 0.00 | 0.00 | 0.00 | 63 | 1006.7 |
| 20260506004442 | 26 | 3 | 8.0 | 17.7 | 0.00 | 0.00 | 0.00 | 62 | 1006.8 |
| 20260506003938 | 26 | 5 | 11.3 | 19.3 | 0.00 | 0.00 | 0.00 | 62 | 1006.4 |
| 20260506003435 | 27 | 0 | 8.0 | 16.1 | 0.00 | 0.00 | 0.00 | 62 | 1006.4 |
| 20260506002931 | 27 | 323 | 11.3 | 17.7 | 0.00 | 0.00 | 0.00 | 61 | 1006.5 |
| 20260506002427 | 27 | 13 | 11.3 | 12.9 | 0.00 | 0.00 | 0.00 | 62 | 1006.3 |
| 20260506001923 | 28 | 4 | 11.3 | 16.1 | 0.00 | 0.00 | 0.00 | 60 | 1006.3 |
| 20260506001420 | 28 | 15 | 16.1 | 19.3 | 0.00 | 0.00 | 0.00 | 59 | 1006.2 |
| 20260506000918 | 29 | 324 | 6.4 | 19.3 | 0.00 | 0.00 | 0.00 | 56 | 1006.4 |
| 20260506000416 | 30 | 349 | 11.3 | 17.7 | 0.00 | 0.00 | 0.00 | 53 | 1006.3 |
| 20260505235912 | 31 | 297 | 6.4 | 17.7 | 0.00 | 0.00 | 0.00 | 49 | 1006.1 |
| 20260505235410 | 32 | 275 | 3.2 | 3.2 | 0.00 | 0.00 | 0.00 | 50 | 1005.9 |
| 20260505234906 | 32 | 190 | 0.0 | 4.8 | 0.00 | 0.00 | 0.00 | 49 | 1005.5 |
| 20260505234404 | 32 | 277 | 0.0 | 4.8 | 0.00 | 0.00 | 0.00 | 49 | 1005.5 |
| 20260505233900 | 33 | 154 | 8.0 | 8.0 | 0.00 | 0.00 | 0.00 | 48 | 1005.3 |
| 20260505233358 | 32 | 188 | 6.4 | 6.4 | 0.00 | 0.00 | 0.00 | 48 | 1005.3 |
| 20260505232855 | 33 | 160 | 3.2 | 3.2 | 0.00 | 0.00 | 0.00 | 49 | 1005.4 |
| 20260505232353 | 33 | 109 | 4.8 | 8.0 | 0.00 | 0.00 | 0.00 | 48 | 1005.2 |
| 20260505231850 | 32 | 222 | 3.2 | 8.0 | 0.00 | 0.00 | 0.00 | 49 | 1005.4 |
| 20260505231347 | 32 | 158 | 4.8 | 14.5 | 0.00 | 0.00 | 0.00 | 48 | 1005.2 |
| 20260505230845 | 33 | 206 | 4.8 | 6.4 | 0.00 | 0.00 | 0.00 | 48 | 1005.2 |
| 20260505230342 | 33 | 179 | 4.8 | 8.0 | 0.00 | 0.00 | 0.00 | 47 | 1005.2 |
| 20260505225839 | 33 | 194 | 4.8 | 9.7 | 0.00 | 0.00 | 0.00 | 46 | 1005.2 |
| 20260505225336 | 34 | 151 | 3.2 | 11.3 | 0.00 | 0.00 | 0.00 | 46 | 1005.3 |
| 20260505224831 | 35 | 183 | 3.2 | 8.0 | 0.00 | 0.00 | 0.00 | 44 | 1005.3 |
| 20260505224329 | 35 | 201 | 3.2 | 4.8 | 0.00 | 0.00 | 0.00 | 41 | 1005.2 |
| 20260505223826 | 35 | 295 | 0.0 | 4.8 | 0.00 | 0.00 | 0.00 | 40 | 1005.2 |
| 20260505223323 | 35 | 0 | 0.0 | 4.8 | 0.00 | 0.00 | 0.00 | 41 | 1005.1 |
| 20260505222818 | 34 | 176 | 3.2 | 6.4 | 0.00 | 0.00 | 0.00 | 44 | 1005.1 |
| 20260505222315 | 34 | 276 | 4.8 | 6.4 | 0.00 | 0.00 | 0.00 | 42 | 1005.3 |
| 20260505221813 | 34 | 249 | 1.6 | 8.0 | 0.00 | 0.00 | 0.00 | 42 | 1005.3 |
| 20260505221309 | 34 | 173 | 3.2 | 6.4 | 0.00 | 0.00 | 0.00 | 41 | 1005.2 |
| 20260505220806 | 34 | 164 | 9.7 | 11.3 | 0.00 | 0.00 | 0.00 | 39 | 1005.2 |
| 20260505220303 | 34 | 168 | 6.4 | 9.7 | 0.00 | 0.00 | 0.00 | 41 | 1005.0 |
| 20260505215801 | 34 | 255 | 4.8 | 8.0 | 0.00 | 0.00 | 0.00 | 44 | 1005.2 |
| 20260505215259 | 35 | 209 | 3.2 | 8.0 | 0.00 | 0.00 | 0.00 | 44 | 1005.3 |
| 20260505214756 | 34 | 153 | 3.2 | 11.3 | 0.00 | 0.00 | 0.00 | 42 | 1005.1 |
| 20260505214253 | 35 | 296 | 4.8 | 6.4 | 0.00 | 0.00 | 0.00 | 42 | 1005.3 |
| 20260505213751 | 35 | 247 | 3.2 | 8.0 | 0.00 | 0.00 | 0.00 | 43 | 1005.2 |
| 20260505213248 | 34 | 232 | 3.2 | 4.8 | 0.00 | 0.00 | 0.00 | 44 | 1005.3 |
| 20260505212743 | 34 | 208 | 4.8 | 8.0 | 0.00 | 0.00 | 0.00 | 42 | 1005.3 |
| 20260505212241 | 35 | 170 | 1.6 | 3.2 | 0.00 | 0.00 | 0.00 | 44 | 1005.3 |
| 20260505211738 | 33 | 168 | 1.6 | 8.0 | 0.00 | 0.00 | 0.00 | 45 | 1005.5 |
| 20260505211235 | 34 | 260 | 8.0 | 8.0 | 0.00 | 0.00 | 0.00 | 44 | 1005.2 |
| 20260505210732 | 34 | 308 | 3.2 | 8.0 | 0.00 | 0.00 | 0.00 | 45 | 1005.3 |
| 20260505210228 | 34 | 269 | 0.0 | 6.4 | 0.00 | 0.00 | 0.00 | 45 | 1005.7 |
| 20260505205726 | 34 | 272 | 4.8 | 8.0 | 0.00 | 0.00 | 0.00 | 46 | 1005.7 |
| 20260505205224 | 34 | 202 | 8.0 | 9.7 | 0.00 | 0.00 | 0.00 | 44 | 1005.6 |
| 20260505204720 | 34 | 214 | 1.6 | 8.0 | 0.00 | 0.00 | 0.00 | 43 | 1005.7 |
| 20260505204218 | 33 | 226 | 8.0 | 9.7 | 0.00 | 0.00 | 0.00 | 45 | 1006.0 |
| 20260505203715 | 35 | 172 | 8.0 | 9.7 | 0.00 | 0.00 | 0.00 | 45 | 1006.1 |
| 20260505203212 | 33 | 220 | 6.4 | 11.3 | 0.00 | 0.00 | 0.00 | 48 | 1005.9 |
| 20260505202708 | 33 | 241 | 3.2 | 11.3 | 0.00 | 0.00 | 0.00 | 46 | 1005.8 |
| 20260505202204 | 33 | 196 | 4.8 | 12.9 | 0.00 | 0.00 | 0.00 | 45 | 1006.0 |
| 20260505201700 | 33 | 226 | 3.2 | 8.0 | 0.00 | 0.00 | 0.00 | 47 | 1006.2 |
| 20260505201159 | 33 | 212 | 8.0 | 12.9 | 0.00 | 0.00 | 0.00 | 46 | 1006.2 |
| 20260505200657 | 34 | 246 | 6.4 | 16.1 | 0.00 | 0.00 | 0.00 | 45 | 1006.2 |
| 20260505200153 | 33 | 189 | 6.4 | 8.0 | 0.00 | 0.00 | 0.00 | 44 | 1006.2 |
| 20260505195649 | 33 | 224 | 0.0 | 12.9 | 0.00 | 0.00 | 0.00 | 47 | 1006.3 |
| 20260505195146 | 33 | 289 | 4.8 | 9.7 | 0.00 | 0.00 | 0.00 | 48 | 1006.3 |
| 20260505194644 | 32 | 191 | 4.8 | 9.7 | 0.00 | 0.00 | 0.00 | 48 | 1006.4 |
| 20260505194139 | 32 | 241 | 4.8 | 9.7 | 0.00 | 0.00 | 0.00 | 49 | 1006.2 |
| 20260505193636 | 32 | 251 | 6.4 | 9.7 | 0.00 | 0.00 | 0.00 | 48 | 1006.4 |
| 20260505193133 | 32 | 238 | 4.8 | 14.5 | 0.00 | 0.00 | 0.00 | 49 | 1006.6 |
| 20260505192632 | 32 | 246 | 3.2 | 11.3 | 0.00 | 0.00 | 0.00 | 50 | 1006.6 |
| 20260505192129 | 32 | 189 | 8.0 | 11.3 | 0.00 | 0.00 | 0.00 | 49 | 1006.6 |
| 20260505191627 | 33 | 251 | 4.8 | 12.9 | 0.00 | 0.00 | 0.00 | 51 | 1006.6 |
| 20260505191125 | 33 | 206 | 4.8 | 9.7 | 0.00 | 0.00 | 0.00 | 50 | 1006.6 |
| 20260505190621 | 32 | 193 | 9.7 | 11.3 | 0.00 | 0.00 | 0.00 | 49 | 1006.7 |
| 20260505190115 | 32 | 272 | 4.8 | 12.9 | 0.00 | 0.00 | 0.00 | 51 | 1006.7 |
| 20260505185612 | 32 | 201 | 6.4 | 14.5 | 0.00 | 0.00 | 0.00 | 53 | 1006.7 |
| 20260505185108 | 32 | 173 | 0.0 | 9.7 | 0.00 | 0.00 | 0.00 | 53 | 1007.0 |
| 20260505184600 | 31 | 278 | 6.4 | 12.9 | 0.00 | 0.00 | 0.00 | 53 | 1007.0 |
| 20260505184057 | 31 | 225 | 4.8 | 11.3 | 0.00 | 0.00 | 0.00 | 55 | 1006.9 |
| 20260505183553 | 31 | 186 | 11.3 | 16.1 | 0.00 | 0.00 | 0.00 | 55 | 1007.0 |
| 20260505183051 | 32 | 250 | 1.6 | 11.3 | 0.00 | 0.00 | 0.00 | 57 | 1007.3 |
| 20260505182547 | 32 | 322 | 4.8 | 8.0 | 0.00 | 0.00 | 0.00 | 57 | 1007.0 |
| 20260505182044 | 31 | 263 | 3.2 | 9.7 | 0.00 | 0.00 | 0.00 | 58 | 1007.2 |
| 20260505181541 | 30 | 167 | 8.0 | 14.5 | 0.00 | 0.00 | 0.00 | 60 | 1007.2 |
| 20260505181038 | 30 | 214 | 4.8 | 16.1 | 0.00 | 0.00 | 0.00 | 61 | 1007.2 |
| 20260505180533 | 30 | 218 | 9.7 | 19.3 | 0.00 | 0.00 | 0.00 | 61 | 1007.1 |
| 20260505180032 | 30 | 239 | 4.8 | 16.1 | 0.00 | 0.00 | 0.00 | 61 | 1007.2 |
| 20260505175526 | 30 | 181 | 8.0 | 12.9 | 0.00 | 0.00 | 0.00 | 63 | 1007.3 |
| 20260505175024 | 30 | 246 | 4.8 | 19.3 | 0.00 | 0.00 | 0.00 | 62 | 1007.2 |
| 20260505174520 | 30 | 194 | 12.9 | 16.1 | 0.00 | 0.00 | 0.00 | 63 | 1007.4 |
| 20260505174016 | 29 | 187 | 12.9 | 20.9 | 0.00 | 0.00 | 0.00 | 64 | 1007.3 |
| 20260505173513 | 29 | 212 | 16.1 | 20.9 | 0.00 | 0.00 | 0.00 | 64 | 1007.4 |
| 20260505173010 | 29 | 247 | 4.8 | 20.9 | 0.00 | 0.00 | 0.00 | 68 | 1007.5 |
| 20260505172508 | 28 | 218 | 3.2 | 12.9 | 0.00 | 0.00 | 0.00 | 68 | 1007.4 |
| 20260505172003 | 28 | 201 | 9.7 | 19.3 | 0.00 | 0.00 | 0.00 | 69 | 1007.3 |
| 20260505171459 | 28 | 164 | 12.9 | 14.5 | 0.00 | 0.00 | 0.00 | 68 | 1007.3 |
| 20260505170956 | 28 | 191 | 4.8 | 17.7 | 0.00 | 0.00 | 0.00 | 70 | 1007.3 |
| 20260505170453 | 28 | 199 | 8.0 | 14.5 | 0.00 | 0.00 | 0.00 | 69 | 1007.3 |
| 20260505165948 | 28 | 184 | 4.8 | 16.1 | 0.00 | 0.00 | 0.00 | 69 | 1007.2 |
| 20260505165444 | 28 | 162 | 9.7 | 11.3 | 0.00 | 0.00 | 0.00 | 70 | 1007.4 |
| 20260505164940 | 27 | 194 | 9.7 | 12.9 | 0.00 | 0.00 | 0.00 | 69 | 1007.2 |
| 20260505164437 | 28 | 212 | 12.9 | 14.5 | 0.00 | 0.00 | 0.00 | 70 | 1007.2 |
| 20260505163934 | 27 | 229 | 6.4 | 19.3 | 0.00 | 0.00 | 0.00 | 70 | 1007.3 |
| 20260505163433 | 27 | 218 | 12.9 | 17.7 | 0.00 | 0.00 | 0.00 | 70 | 1007.3 |
| 20260505162932 | 27 | 165 | 11.3 | 14.5 | 0.00 | 0.00 | 0.00 | 71 | 1007.3 |
| 20260505162427 | 27 | 192 | 11.3 | 12.9 | 0.00 | 0.00 | 0.00 | 72 | 1007.1 |
| 20260505161924 | 27 | 188 | 19.3 | 19.3 | 0.00 | 0.00 | 0.00 | 71 | 1007.2 |
| 20260505161421 | 27 | 225 | 8.0 | 20.9 | 0.00 | 0.00 | 0.00 | 72 | 1007.2 |
| 20260505160918 | 27 | 217 | 8.0 | 16.1 | 0.00 | 0.00 | 0.00 | 72 | 1007.4 |
| 20260505160416 | 26 | 233 | 6.4 | 16.1 | 0.00 | 0.00 | 0.00 | 72 | 1007.3 |
| 20260505153355 | 26 | 226 | 4.8 | 16.1 | 0.00 | 0.00 | 0.00 | 75 | 1007.6 |
| 20260505152852 | 26 | 218 | 8.0 | 11.3 | 0.00 | 0.00 | 0.00 | 75 | 1007.4 |
| 20260505152344 | 25 | 230 | 8.0 | 19.3 | 0.00 | 0.00 | 0.00 | 75 | 1007.7 |
| 20260505151843 | 25 | 189 | 6.4 | 20.9 | 0.00 | 0.00 | 0.00 | 77 | 1007.6 |
| 20260505151340 | 25 | 162 | 6.4 | 14.5 | 0.00 | 0.00 | 0.00 | 78 | 1007.6 |
| 20260505150837 | 25 | 218 | 16.1 | 20.9 | 0.00 | 0.00 | 0.00 | 77 | 1007.5 |
| 20260505150334 | 25 | 204 | 8.0 | 16.1 | 0.00 | 0.00 | 0.00 | 77 | 1007.6 |
| 20260505140259 | 23 | 194 | 6.4 | 14.5 | 0.00 | 0.00 | 0.00 | 84 | 1007.1 |
| 20260505130217 | 21 | 169 | 8.0 | 9.7 | 0.00 | 0.00 | 0.00 | 88 | 1007.2 |
| 20260505124707 | 21 | 261 | 4.8 | 11.3 | 0.00 | 0.00 | 0.00 | 89 | 1007.0 |
| 20260505124204 | 21 | 247 | 4.8 | 9.7 | 0.00 | 0.00 | 0.00 | 90 | 1006.9 |
| 20260505123659 | 21 | 201 | 3.2 | 9.7 | 0.00 | 0.00 | 0.00 | 90 | 1006.8 |
| 20260505123156 | 21 | 178 | 4.8 | 8.0 | 0.00 | 0.00 | 0.00 | 90 | 1006.7 |
| 20260505122653 | 21 | 173 | 4.8 | 14.5 | 0.00 | 0.00 | 0.00 | 91 | 1006.7 |
| 20260505122149 | 20 | 177 | 3.2 | 9.7 | 0.00 | 0.00 | 0.00 | 91 | 1006.6 |
| 20260505121641 | 20 | 174 | 4.8 | 8.0 | 0.00 | 0.00 | 0.00 | 91 | 1006.4 |
| 20260505121137 | 20 | 153 | 4.8 | 9.7 | 0.00 | 0.00 | 0.00 | 91 | 1006.3 |
| 20260505120633 | 20 | 171 | 6.4 | 9.7 | 0.00 | 0.00 | 0.00 | 91 | 1006.4 |
| 20260505120129 | 20 | 186 | 3.2 | 9.7 | 0.00 | 0.00 | 0.00 | 91 | 1006.5 |
| 20260505115624 | 20 | 199 | 6.4 | 8.0 | 0.00 | 0.00 | 0.00 | 91 | 1006.5 |
| 20260505115122 | 20 | 183 | 6.4 | 8.0 | 0.00 | 0.00 | 0.00 | 91 | 1006.2 |
| 20260505114618 | 20 | 187 | 8.0 | 8.0 | 0.00 | 0.00 | 0.00 | 91 | 1006.4 |
| 20260505114115 | 20 | 185 | 4.8 | 8.0 | 0.00 | 0.00 | 0.00 | 91 | 1006.3 |
| 20260505113611 | 20 | 170 | 6.4 | 12.9 | 0.00 | 0.00 | 0.00 | 91 | 1006.0 |
| 20260505113108 | 20 | 167 | 3.2 | 9.7 | 0.00 | 0.00 | 0.00 | 91 | 1006.2 |
| 20260505112604 | 20 | 210 | 3.2 | 6.4 | 0.00 | 0.00 | 0.00 | 90 | 1006.1 |
| 20260505112102 | 20 | 145 | 8.0 | 12.9 | 0.00 | 0.00 | 0.00 | 91 | 1006.3 |
| 20260505111556 | 20 | 213 | 1.6 | 9.7 | 0.00 | 0.00 | 0.00 | 90 | 1006.3 |
| 20260505111052 | 20 | 176 | 6.4 | 8.0 | 0.00 | 0.00 | 0.00 | 90 | 1006.1 |
| 20260505110549 | 20 | 195 | 8.0 | 9.7 | 0.00 | 0.00 | 0.00 | 90 | 1006.2 |